Regional Weather Roundup
Issued by NWS

Home | Current Version | Previous Version | Graphics & Text | Print | Product List | Glossary On
Versions: 1 2 3 4 5 6 7 8 9 10 11 12 13 14 15 16 17 18 19 20 21 22 23 24 25 26 27 28 29 30 31 32 33 34 35 36 37 38 39 40 41 42 43 44 45 46 47 48 49 50
000
ASUS43 KBIS 181110
RWRND

NORTH DAKOTA REGIONAL WEATHER ROUNDUP
NATIONAL WEATHER SERVICE BISMARCK ND
600 AM CDT FRI AUG 18 2017

NOTE: "FAIR" INDICATES FEW OR NO CLOUDS BELOW 12,000 FEET WITH NO
SIGNIFICANT WEATHER AND/OR OBSTRUCTIONS TO VISIBILITY.


NDZ001>003-009>011-017-181200-
NORTHWEST NORTH DAKOTA

CITY           SKY/WX    TMP DP  RH WIND       PRES   REMARKS
WILLISTON      CLOUDY    60  56  86 CALM      29.95S
MINOT          CLEAR     60  55  83 SW7       29.90R
MINOT AFB      CLEAR     56  53  90 W9        29.88R
$$

NDZ018>021-031>035-040>046-181200-
SOUTHWEST NORTH DAKOTA

CITY           SKY/WX    TMP DP  RH WIND       PRES   REMARKS
BISMARCK       PTCLDY    60  54  80 NW6       29.89S
DICKINSON      MOCLDY    53  51  93 S7        29.95F
GARRISON         N/A     54  52  93 N7        29.93R
HETTINGER ARPT MOCLDY    54  49  83 W3        29.98R
$$

NDZ004>008-012>016-024-026-027-054-181200-
NORTHEAST NORTH DAKOTA

CITY           SKY/WX    TMP DP  RH WIND       PRES   REMARKS
GRAND FORKS    PTCLDY    57  56  96 SW6       29.83R
GRND FRKS AFB  PTCLDY    57  55  94 VRB2      29.83S
DEVILS LAKE    CLOUDY    64  60  87 W10       29.90R
$$

NDZ022-023-025-028>030-036>039-047>053-181200-
SOUTHEAST NORTH DAKOTA

CITY           SKY/WX    TMP DP  RH WIND       PRES   REMARKS
FARGO          CLOUDY    62  59  90 S5        29.83F
JAMESTOWN      CLOUDY    61  58  90 S5        29.86R THUNDER
$$




USA.gov is the U.S. government's official web portal to all federal, state and local government web resources and services.